Home > Time Zones > World Clock > Weather > U.S.A. > Yuma > Past weeks

Flag for U.S.A. Weather past 2 weeks in Yuma, Arizona, U.S.A.

Now
88 °F

Passing clouds.


Feels Like: 92 °F
Forecast: 83 / 102 °F
Wind: 6 mph from Southeast

Location: Yuma Marine Corps Air Station

Current Time: Sep 18, 2014 at 3:00:18 AM

Latest Report: Sep 18, 2014 at 1:57 AM


Visibility: 10 mi

Pressure: 29.68 "Hg

Humidity: 54%

Dew point: 69 °F

Location of YumaLocation

Historic Weather in Yuma — Graph

°F

Yuma temperature yesterday

Maximum temperature yesterday: 100 °F (at 1:57 PM)
Minimum temperature yesterday: 83 °F (at 5:57 AM)
Average temperature yesterday: 92 °F

Past Weeks' High & Low Weather Summary

 TemperatureHumidityPressure
High110 °F (Sep 3, 2:57 PM)82% (Sep 9, 11:57 AM)29.88 "Hg (Sep 9, 11:57 AM)
Low76 °F (Sep 9, 11:57 AM)11% (Sep 12, 3:57 PM)29.51 "Hg (Sep 3, 5:57 PM)
Average93 °F40%29.73 "Hg
* Reported Sep 3 1:57 AM — Sep 18 1:57 AM, Yuma, Weather by CustomWeather, © 2014

Note: Actual official high and low records may vary slightly from our data, if they occured in-between our weather recording intervals... More about our weather records

Advertising

Yuma weather history for previous 24 hours

 ConditionsComfort  
Time TempWeatherWind HumidityBarometerVisibility
1:57 AM
Sep 18
88 °FPassing clouds.6 mph54%29.68 "Hg10 mi
12:57 AM91 °FPassing clouds.5 mph42%29.68 "Hg10 mi
11:57 PM
Sep 17
91 °FPassing clouds.7 mph42%29.68 "Hg10 mi
10:57 PM92 °FPassing clouds.10 mph40%29.67 "Hg10 mi
9:57 PM93 °FPassing clouds.10 mph37%29.67 "Hg10 mi
8:57 PM94 °FPassing clouds.10 mph37%29.66 "Hg10 mi
7:57 PM95 °FPassing clouds.10 mph36%29.65 "Hg10 mi
6:57 PM98 °FPassing clouds.12 mph31%29.64 "Hg10 mi
5:57 PM99 °FPartly sunny.5 mph30%29.63 "Hg10 mi
4:57 PM99 °FBroken clouds.7 mph31%29.63 "Hg10 mi
3:57 PM99 °FBroken clouds.5 mph31%29.64 "Hg10 mi
2:57 PM96 °FBroken clouds.6 mph35%29.66 "Hg10 mi
1:57 PM100 °FBroken clouds.8 mph29%29.67 "Hg10 mi
12:57 PM99 °FBroken clouds.6 mph31%29.70 "Hg10 mi
11:57 AM96 °FBroken clouds.7 mph35%29.72 "Hg10 mi
10:57 AM94 °FPartly sunny.7 mph41%29.74 "Hg10 mi
9:57 AM92 °FBroken clouds.5 mph44%29.75 "Hg10 mi
8:57 AM88 °FBroken clouds.6 mph59%29.75 "Hg10 mi
7:57 AM84 °FBroken clouds.6 mph67%29.75 "Hg10 mi
6:57 AM84 °FBroken clouds.6 mph67%29.74 "Hg10 mi
5:57 AM83 °FPassing clouds.5 mph70%29.73 "Hg10 mi
4:57 AM84 °FPassing clouds.5 mph67%29.72 "Hg10 mi
3:57 AM84 °FPassing clouds.6 mph65%29.72 "Hg10 mi
Weather by CustomWeather, © 2014

See weather overviewHow to use our weather pages